Powrót do katalogu

ORBCOMM FM 103

AktywnyŁącznośćLEO
NORAD 40091·PAYLOAD·🇺🇸 United States

Wystrzelony Jul 14, 2014 z Cape Canaveral Space Force Station

Loading…

Następne Przeloty (najbliższe 24 godziny)

TLE

ŚwieżeSource: Space-Track

Epoka: Sep 13, 2026, 15:41 UTC

1 40091U 14040F   26256.65365641  .00000302  00000-0  10008-3 0  9997
2 40091  47.0061  34.8136 0002087 210.6989 149.3775 14.58917353630305

Śledź ORBCOMM FM 103 w czasie rzeczywistym z AllMySat

Download on the App Store